PLEIADES NEO 4

Last updated on Sun Jan 18 2026 00:02:30 GMT+0000 (Coordinated Universal Time)

1 49070U 21073E 26017.62197003 .00000610 00000+0 84081-4 0 9998 2 49070 97.8947 94.5453 0001326 93.0607 267.0758 14.81672718239074
UTC large
Height (km)
Speed (km/s)
/
Latitude / Longitude
Inclination (degrees)
Orbital Period (minutes)
Azimuth
Elevation
Range (km)
Doppler Factor

Next 0 passes for location: London (51.5072 / 0.1276)

Sorry there are no passes over London.